Weather History for Winfield, KS

Change the Weather History Date:

Saturday, April 12, 2014

  Actual Average Record
Temperature  
Mean Temperature 72 °F -  
Max Temperature 86 °F 66 °F 86 °F (2014)
Min Temperature 59 °F 43 °F 26 °F (1997)
Cooling Degree Days 6    
Growing Degree Days 22 (Base 50)    
Moisture  
Dew Point 58 °F    
Average Humidity 66    
Maximum Humidity 93    
Minimum Humidity 41    
Precipitation  
Precipitation 0.00 in - - ()
Sea Level Pressure  
Sea Level Pressure 29.68 in    
Wind  
Wind Speed 16 mph (SSE)    
Max Wind Speed 29 mph    
Max Gust Speed 38 mph    
Visibility 10 miles    
Events      
Averages and records for this station are not official NWS values.
T = Trace of Precipitation, MM = Missing Value Source: NWS Daily Summary

Daily Weather History Graph

Daily Weather History Graph

Search for Another Location

Airport:

Trip Planner

Search our weather history database for the weather conditions in past years. The results will help you decide how hot, cold, wet, or windy it might be!

Date:

Astronomy

Apr. 12, 2014 Rise Set
Actual Time 6:57 AM CDT 8:00 PM CDT
Civil Twilight 6:31 AM CDT 8:27 PM CDT
Nautical Twilight 5:59 AM CDT 8:59 PM CDT
Astronomical Twilight 5:26 AM CDT 9:32 PM CDT
Moon 5:43 PM CDT (4/12) 5:21 AM CDT (4/12)
Length of Visible Light 13h 56m
Length of Day
13h 02m
Waxing Gibbous, 93% of the Moon is Illuminated
Apr 12
Waxing Gibbous
Apr 15
Full
Apr 22
Last Quarter
Apr 29
New
May 6
First Quarter

Hourly Weather History & Observations

Time (CDT) Temp. Heat Index Dew Point Humidity Pressure Visibility Wind Dir Wind Speed Gust Speed Precip Events Conditions
12:54 AM 62.1 °F - 55.9 °F 80% 29.87 in 10.0 mi SSE 9.2 mph - N/A   Clear
1:54 AM 62.1 °F - 57.0 °F 84% 29.84 in 9.0 mi SSE 11.5 mph - N/A   Clear
2:54 AM 61.0 °F - 57.0 °F 87% 29.81 in 7.0 mi SSE 12.7 mph - N/A   Clear
3:54 AM 61.0 °F - 57.0 °F 87% 29.79 in 9.0 mi SSE 12.7 mph - N/A   Clear
4:54 AM 60.1 °F - 57.0 °F 90% 29.78 in 9.0 mi SSE 12.7 mph - N/A   Clear
5:54 AM 59.0 °F - 57.0 °F 93% 29.77 in 9.0 mi SSE 10.4 mph - N/A   Clear
6:54 AM 59.0 °F - 57.0 °F 93% 29.76 in 8.0 mi SSE 11.5 mph - N/A   Clear
7:54 AM 61.0 °F - 57.9 °F 90% 29.76 in 8.0 mi SSE 11.5 mph - N/A   Clear
8:54 AM 64.9 °F - 60.1 °F 84% 29.76 in 10.0 mi South 19.6 mph - N/A   Clear
9:54 AM 69.1 °F - 60.1 °F 73% 29.75 in 10.0 mi South 16.1 mph 28.8 mph N/A   Clear
10:54 AM 72.0 °F - 60.1 °F 66% 29.73 in 10.0 mi South 21.9 mph 32.2 mph N/A   Clear
11:54 AM 77.0 °F - 60.1 °F 56% 29.71 in 10.0 mi South 21.9 mph 31.1 mph N/A   Clear
12:54 PM 80.1 °F 80.9 °F 60.1 °F 50% 29.68 in 10.0 mi South 25.3 mph 32.2 mph N/A   Clear
1:54 PM 82.0 °F 82.4 °F 60.1 °F 47% 29.63 in 10.0 mi South 26.5 mph 35.7 mph N/A   Clear
2:54 PM 84.0 °F 84.0 °F 60.1 °F 44% 29.60 in 10.0 mi South 25.3 mph 38.0 mph N/A   Clear
3:54 PM 84.9 °F 84.4 °F 59.0 °F 41% 29.58 in 10.0 mi South 26.5 mph 35.7 mph N/A   Clear
4:54 PM 84.9 °F 84.4 °F 59.0 °F 41% 29.55 in 10.0 mi South 25.3 mph 35.7 mph N/A   Clear
5:54 PM 84.0 °F 83.8 °F 59.0 °F 43% 29.55 in 10.0 mi South 26.5 mph 38.0 mph N/A   Clear
6:54 PM 81.0 °F 81.1 °F 57.9 °F 45% 29.56 in 10.0 mi SSW 28.8 mph 38.0 mph N/A   Clear
7:54 PM 77.0 °F - 57.9 °F 52% 29.57 in 10.0 mi South 23.0 mph 35.7 mph N/A   Clear
8:54 PM 73.9 °F - 57.9 °F 57% 29.57 in 10.0 mi South 20.7 mph 31.1 mph N/A   Clear
9:54 PM 72.0 °F - 57.9 °F 61% 29.57 in 10.0 mi South 24.2 mph 29.9 mph N/A   Clear
10:54 PM 72.0 °F - 59.0 °F 64% 29.56 in 10.0 mi South 24.2 mph 33.4 mph N/A   Clear
11:54 PM 71.1 °F - 59.0 °F 66% 29.56 in 10.0 mi South 20.7 mph 32.2 mph N/A   Clear